IRIDIUM 59

Last updated on Wed Nov 29 2017 00:19:02 GMT+0000 (Coordinated Universal Time)

1 25275U 98019D 17332.20183325 .00000187 00000-0 59841-4 0 9995 2 25275 86.3995 218.7921 0001835 82.8502 277.2902 14.34220105 29579

Satellite not in orbit

IRIDIUM 59